Marion Regional, IL

6:37 PM CDT on September 21, 2017 (GMT -0500)
Williamson County Regional

Weather History for KMWA - December, 2012

Change the Weather History Date:

Monday, December 10, 2012

  Actual Average Record
Temperature  
Mean Temperature 37 °F -  
Max Temperature 44 °F 44 °F 70 °F (1971)
Min Temperature 30 °F 25 °F 4 °F (1977)
Degree Days  
Heating Degree Days 28    
Moisture  
Dew Point 28 °F    
Average Humidity 75    
Maximum Humidity 93    
Minimum Humidity 64    
Precipitation  
Precipitation 0.00 in - - ()
Sea Level Pressure  
Sea Level Pressure 29.96 in    
Wind  
Wind Speed 8 mph (NW)    
Max Wind Speed 15 mph    
Max Gust Speed 18 mph    
Visibility 12 miles    
Events      
Averages and records for this station are not official NWS values.
T = Trace of Precipitation, MM = Missing Value Source: NWS Daily Summary

Daily Weather History Graph

Daily Weather History Graph

Search for Another Location

Airport or City:

Trip Planner

Search our weather history database for the weather conditions in past years. The results will help you decide how hot, cold, wet, or windy it might be!

Date:

Astronomy

Dec. 10, 2012 Rise Set
Actual Time 7:00 AM CST 4:37 PM CST
Civil Twilight 6:31 AM CST 5:06 PM CST
Nautical Twilight 5:58 AM CST 5:39 PM CST
Astronomical Twilight 5:26 AM CST 6:11 PM CST
Moon 3:46 AM CST (12/10) 2:24 PM CST (12/10)
Length of Visible Light 10h 34m
Length of Day
9h 36m
Waning Crescent, 10% of the Moon is Illuminated
Dec 10
Waning Crescent
Dec 13
New
Dec 19
First Quarter
Dec 28
Full
Jan 4
Last Quarter

Hourly Weather History & Observations

Time (CST) Temp. Windchill Dew Point Humidity Pressure Visibility Wind Dir Wind Speed Gust Speed Precip Events Conditions
12:15 AM 44.6 °F 41.4 °F 42.8 °F 93% 29.87 in 10.0 mi NW 5.8 mph - N/A   Overcast
12:35 AM 44.6 °F 42.2 °F 41.0 °F 87% 29.86 in 10.0 mi NW 4.6 mph - N/A   Overcast
12:55 AM 44.6 °F 40.2 °F 41.0 °F 87% 29.87 in 10.0 mi NNW 8.1 mph - N/A   Overcast
1:15 AM 44.6 °F 42.2 °F 39.2 °F 81% 29.86 in 10.0 mi North 4.6 mph - N/A   Overcast
1:35 AM 44.6 °F 42.2 °F 39.2 °F 81% 29.87 in 10.0 mi NNW 4.6 mph - N/A   Overcast
1:55 AM 44.6 °F 43.1 °F 39.2 °F 81% 29.86 in 10.0 mi NW 3.5 mph - N/A   Mostly Cloudy
2:15 AM 44.6 °F 41.4 °F 37.4 °F 76% 29.87 in 10.0 mi NW 5.8 mph - N/A   Mostly Cloudy
2:35 AM 42.8 °F 37.5 °F 37.4 °F 81% 29.86 in 10.0 mi NW 9.2 mph 16.1 mph N/A   Mostly Cloudy
2:55 AM 42.8 °F 36.6 °F 35.6 °F 76% 29.86 in 10.0 mi NW 11.5 mph - N/A   Mostly Cloudy
3:15 AM 41.0 °F 36.4 °F 33.8 °F 76% 29.85 in 10.0 mi NW 6.9 mph - N/A   Mostly Cloudy
3:35 AM 41.0 °F 34.7 °F 33.8 °F 76% 29.85 in 10.0 mi NW 10.4 mph 16.1 mph N/A   Mostly Cloudy
3:55 AM 41.0 °F 35.8 °F 32.0 °F 70% 29.85 in 10.0 mi NW 8.1 mph - N/A   Scattered Clouds
4:15 AM 39.2 °F 32.5 °F 32.0 °F 75% 29.85 in 10.0 mi NNW 10.4 mph 17.3 mph N/A   Clear
4:35 AM 37.4 °F 31.4 °F 32.0 °F 81% 29.85 in 10.0 mi WNW 8.1 mph - N/A   Clear
4:55 AM 37.4 °F 30.8 °F 32.0 °F 81% 29.85 in 10.0 mi NW 9.2 mph - N/A   Mostly Cloudy
5:15 AM 35.6 °F 27.1 °F 30.2 °F 81% 29.88 in 10.0 mi NW 12.7 mph - N/A   Overcast
5:35 AM 33.8 °F 27.0 °F 30.2 °F 87% 29.88 in 10.0 mi WNW 8.1 mph 16.1 mph N/A   Overcast
6:55 AM 33.8 °F 24.3 °F 26.6 °F 75% 29.90 in 10.0 mi NNW 13.8 mph - N/A   Overcast
7:55 AM 32.0 °F 22.1 °F 26.6 °F 80% 29.93 in 10.0 mi NNW 13.8 mph 18.4 mph N/A   Overcast
9:55 AM 32.0 °F 23.0 °F 26.6 °F 80% 29.95 in 20.0 mi NNW 11.5 mph - N/A   Overcast
10:55 AM 32.0 °F 22.1 °F 24.8 °F 75% 29.95 in 20.0 mi NW 13.8 mph - N/A   Overcast
11:57 AM 30.2 °F 19.3 °F 24.8 °F 80% 29.93 in 20.0 mi NW 15.0 mph - N/A   Overcast
12:52 PM 32.0 °F 23.0 °F 24.8 °F 75% 29.92 in 20.0 mi NW 11.5 mph - N/A   Overcast
1:54 PM 33.8 °F 25.3 °F 24.8 °F 70% 29.91 in 20.0 mi NW 11.5 mph - N/A   Overcast
2:53 PM 33.8 °F 25.3 °F 24.8 °F 70% 29.94 in 20.0 mi NW 11.5 mph - N/A   Overcast
3:53 PM 33.8 °F 26.4 °F 24.8 °F 70% 29.96 in 20.0 mi NW 9.2 mph - N/A   Overcast
4:57 PM 33.8 °F 24.3 °F 24.8 °F 70% 29.99 in 20.0 mi NNW 13.8 mph - N/A   Overcast
5:54 PM 32.0 °F 23.0 °F 24.8 °F 75% 30.01 in 20.0 mi NW 11.5 mph - N/A   Overcast
6:55 PM 32.0 °F 23.6 °F 23.0 °F 69% 30.04 in 10.0 mi NW 10.4 mph - N/A   Overcast
7:15 PM 32.0 °F 24.2 °F 23.0 °F 69% 30.04 in 10.0 mi NNW 9.2 mph - N/A   Overcast
7:35 PM 32.0 °F 24.8 °F 23.0 °F 69% 30.04 in 10.0 mi NNW 8.1 mph - N/A   Overcast
7:55 PM 32.0 °F 26.4 °F 23.0 °F 69% 30.05 in 10.0 mi NNW 5.8 mph - N/A   Overcast
8:15 PM 32.0 °F 27.5 °F 23.0 °F 69% 30.05 in 10.0 mi NNW 4.6 mph - N/A   Overcast
8:35 PM 32.0 °F 26.4 °F 23.0 °F 69% 30.05 in 10.0 mi NNW 5.8 mph - N/A   Overcast
8:55 PM 32.0 °F 26.4 °F 23.0 °F 69% 30.05 in 10.0 mi NNW 5.8 mph - N/A   Overcast
9:15 PM 32.0 °F 25.6 °F 23.0 °F 69% 30.06 in 10.0 mi NNW 6.9 mph - N/A   Overcast
9:35 PM 32.0 °F 25.6 °F 23.0 °F 69% 30.06 in 10.0 mi NNW 6.9 mph - N/A   Overcast
9:55 PM 32.0 °F 28.7 °F 23.0 °F 69% 30.06 in 10.0 mi NW 3.5 mph - N/A   Overcast
10:15 PM 32.0 °F 25.6 °F 23.0 °F 69% 30.07 in 10.0 mi North 6.9 mph - N/A   Overcast
10:35 PM 32.0 °F 24.2 °F 23.0 °F 69% 30.07 in 10.0 mi NNW 9.2 mph - N/A   Overcast
10:55 PM 32.0 °F - 23.0 °F 69% 30.09 in 10.0 mi Calm Calm - N/A   Overcast
11:15 PM 32.0 °F 27.5 °F 23.0 °F 69% 30.09 in 10.0 mi North 4.6 mph - N/A   Overcast
11:35 PM 32.0 °F 27.5 °F 21.2 °F 64% 30.10 in 10.0 mi NNW 4.6 mph - N/A   Overcast
11:55 PM 32.0 °F 28.7 °F 21.2 °F 64% 30.10 in 10.0 mi NNW 3.5 mph - N/A   Overcast